Simultaneous Nadir Overpasses (SNOs) Predictions

Prediction of SNOs between AQUA and METOP-A Satellite Orbit:

Table of predicted SNOs for the next 14.0 days since TLE Epoch: 11/10/2014
Index Date (AQUA) Time (AQUA) Lat,Lon (AQUA) SZA (AQUA ) Date (METOP-A) Time (METOP-A) Lat,Lon (METOP-A) SZA (METOP-A ) Distance(km) Time Diff (sec)
1 11/12/2014 19:19:43 73.74,-115.53 91.49 11/12/2014 19:19:17 73.76,-115.63 91.50 3.68 26
2 11/12/2014 20:09:10 -73.83, 51.94 88.43 11/12/2014 20:09:57 -73.85, 51.92 88.40 3.07 47
3 11/15/2014 14:04:19 -73.51, 143.81 88.04 11/15/2014 14:03:08 -73.41, 142.63 88.12 39.17 71
4 11/15/2014 14:53:52 73.80, -49.18 92.28 11/15/2014 14:53:40 73.79, -49.16 92.27 1.09 12
5 11/15/2014 15:43:19 -73.87, 118.30 87.64 11/15/2014 15:44:20 -73.89, 118.40 87.63 3.63 61
6 11/18/2014 09:38:31 -73.72,-150.18 87.12 11/18/2014 09:37:26 -73.73,-150.23 87.11 1.70 65
7 11/18/2014 10:28:00 73.81, 17.26 92.98 11/18/2014 10:28:04 73.81, 17.29 92.98 0.95 4
8 11/18/2014 11:17:30 -74.04,-175.61 86.78 11/18/2014 11:18:41 -74.06,-174.77 86.77 25.55 71
9 11/21/2014 05:12:38 -73.75, -83.76 86.45 11/21/2014 05:11:50 -73.75, -83.79 86.44 0.88 48
10 11/21/2014 06:02:07 73.84, 83.67 93.66 11/21/2014 06:02:28 73.82, 83.71 93.64 2.94 21
11 11/24/2014 00:46:44 -73.79, -17.36 85.81 11/24/2014 00:46:14 -73.75, -17.37 85.84 3.78 30
12 11/24/2014 01:36:11 73.84, 150.17 94.25 11/24/2014 01:36:51 73.82, 150.12 94.24 2.29 40




NCC Satellite Simultaneous Nadir Overpasses (SNOs) Prediction Service
